CW7409 Weather Reports


Display with metric or nautical units.
time (UTC)temp
F
wind
direction
speed
MPH
gust
MPH
rain 1hr
in
rain 24hr
in
rain mn
in
humidity
%
barometer
mb
20260504150914 69 290 9.0 15.0 0.00 0.00 0.00 44 999.9
20260504140914 62 329 10.0 13.0 0.00 0.00 0.00 54 1000.3
20260504080914 55 160 5.0 7.0 0.00 0.00 0.00 57 1000.7
20260504044915 59 152 5.0 8.0 0.00 0.00 0.00 51 1003.5
20260504041914 60 121 5.0 6.0 0.00 0.00 0.00 49 1004.0
20260504033914 61 140 5.0 7.0 0.00 0.00 0.00 49 1004.7
20260504031916 62 113 3.0 6.0 0.00 0.00 0.00 48 1004.8
20260504024916 64 102 4.0 6.0 0.00 0.00 0.00 45 1004.8
20260504020914 66 49 3.0 5.0 0.00 0.00 0.00 41 1005.0
20260504013914 67 64 2.0 3.0 0.00 0.00 0.00 38 1005.0
20260504010914 69 41 3.0 7.0 0.00 0.00 0.00 36 1005.0
20260504004915 72 39 6.0 8.0 0.00 0.00 0.00 32 1005.2
20260504003914 72 41 7.0 9.0 0.00 0.00 0.00 30 1005.1
20260504001914 74 47 6.0 10.0 0.00 0.00 0.00 30 1005.3
20260504000914 74 49 5.0 7.0 0.00 0.00 0.00 29 1005.5
20260503231914 75 82 5.0 8.0 0.00 0.00 0.00 28 1006.0
20260503230915 75 70 5.0 9.0 0.00 0.00 0.00 29 1005.9
20260503221914 77 86 3.0 8.0 0.00 0.00 0.00 28 1006.3
20260503220914 76 309 3.0 9.0 0.00 0.00 0.00 28 1006.4
20260503213914 77 301 3.0 12.0 0.00 0.00 0.00 25 1006.6
20260503211915 78 39 8.0 13.0 0.00 0.00 0.00 26 1006.9
20260503210914 77 30 10.0 14.0 0.00 0.00 0.00 27 1007.0
20260503203914 77 27 9.0 14.0 0.00 0.00 0.00 27 1007.4
20260503201914 77 7 7.0 12.0 0.00 0.00 0.00 26 1007.7
20260503194914 77 326 7.0 14.0 0.00 0.00 0.00 31 1007.9
20260503191913 76 11 8.0 15.0 0.00 0.00 0.00 30 1008.2
20260503174914 74 39 11.0 15.0 0.00 0.00 0.00 32 1009.3
20260503173914 74 340 5.0 18.0 0.00 0.00 0.00 31 1009.5
20260503171915 74 348 14.0 18.0 0.00 0.00 0.00 32 1009.6